Regional Weather Roundup
Issued by NWS

Home | Current Version | Previous Version | Text Only | Print | Product List | Glossary Off
Versions: 1 2 3 4 5 6 7 8 9 10 11 12 13 14 15 16 17 18 19 20 21 22 23 24 25 26 27 28 29 30 31 32 33 34 35 36 37 38 39 40 41 42 43 44 45 46 47 48 49 50

000
ASUS43 KLSX 241207
RWRMO

WEATHER SUMMARY FOR MISSOURI
NATIONAL WEATHER SERVICE SPRINGFIELD MO
600 AM CST WED DEC 24 2014

NOTE: "FAIR" INDICATES FEW OR NO CLOUDS BELOW 12,000 FEET WITH NO
       SIGNIFICANT WEATHER AND/OR OBSTRUCTIONS TO VISIBILITY.
       CURRENT SKY AND/OR WEATHER CONDITIONS ARE NOT AVAILABLE FOR
       CHILLICOTHE AND FARMINGTON.

MOZ001>031-035>038-043-044-053-054-241300-
...NORTHERN AND WESTERN MISSOURI...

CITY           SKY/WX    TMP DP  RH WIND       PRES   REMARKS
KANSAS CTY INT FLURRIES  34  33  96 NW16G24   29.80S WCI  24
6HR MIN TEMP:  33; 6HR MAX TEMP:  36; 6HR PCP:  0.07;

KANSAS C DTWN  MIX PCPN  36  33  89 NW10      29.81S WCI  28
6HR MIN TEMP:  35; 6HR MAX TEMP:  38; 6HR PCP: TRACE;

LEE`S SUMMIT   LGT SNOW  34  32  92 NW13      29.80R FOG     WCI  25
6HR MIN TEMP:  34; 6HR MAX TEMP:  36; 6HR PCP:  0.01;

ST JOSEPH      FLURRIES  35  32  88 NW17      29.83S WCI  25
6HR MIN TEMP:  34; 6HR MAX TEMP:  36; 6HR PCP:  0.01;

CHILLICOTHE      N/A     36  32  85 NW8G17    29.78R WCI  30
6HR MIN TEMP:  36; 6HR MAX TEMP:  37;

KIRKSVILLE     CLOUDY    35  34  96 NW9       29.73R WCI  28
6HR MIN TEMP:  35; 6HR MAX TEMP:  37;


$$
MOZ066>068-077>081-088>096-101>105-241300-
...SOUTHWEST MISSOURI...

CITY           SKY/WX    TMP DP  RH WIND       PRES   REMARKS
SPRINGFIELD    CLOUDY    36  33  89 NW10      29.75S WCI  28
6HR MIN TEMP:  35; 6HR MAX TEMP:  38; 6HR PCP: TRACE;

JOPLIN         CLOUDY    37  32  82 NW13      29.82R WCI  29
6HR MIN TEMP:  36; 6HR MAX TEMP:  37; 6HR PCP: TRACE;


$$
MOZ032>034-039>042-045>050-055>058-069>072-241300-
...CENTRAL MISSOURI...

CITY           SKY/WX    TMP DP  RH WIND       PRES   REMARKS
COLUMBIA       CLOUDY    36  35  96 NW9       29.73R WCI  29
6HR MIN TEMP:  33; 6HR MAX TEMP:  37; 6HR PCP: TRACE;

JEFFERSON CITY CLOUDY    37  35  92 W7        29.74S
6HR MIN TEMP:  33; 6HR MAX TEMP:  37;

ROLLA          CLOUDY    34  32  92 W6        29.70S WCI  29
6HR MIN TEMP:  33; 6HR MAX TEMP:  35; 6HR PCP: TRACE;

SEDALIA        CLOUDY    37  33  85 NW13      29.76R WCI  29
6HR MIN TEMP:  36; 6HR MAX TEMP:  38; 6HR PCP:  0.01;

WHITEMAN AFB   CLOUDY    36  32  86 NW10      29.76R WCI  28
WARRENSBURG    CLOUDY    36  32  87 NW7G16    29.78R WCI  30
OSAGE BEACH    CLOUDY    37  32  81 NW5       29.74S

$$
MOZ051-052-059>065-241300-
...EAST CENTRAL MISSOURI...

CITY           SKY/WX    TMP DP  RH WIND       PRES   REMARKS
ST LOUIS INTL  CLOUDY    40  33  76 W6        29.71R
6HR MIN TEMP:  40; 6HR MAX TEMP:  43; 6HR PCP: TRACE;

SPIRIT OF STL  CLOUDY    38  33  82 W3        29.71R
6HR MIN TEMP:  38; 6HR MAX TEMP:  41;

ST CHARLES     CLOUDY    39  34  82 NW5       29.71R
6HR MIN TEMP:  39; 6HR MAX TEMP:  42;


$$
MOZ072>076-082>087-097>100-106>115-241300-
...SOUTH CENTRAL AND SOUTHEAST MISSOURI...

CITY           SKY/WX    TMP DP  RH WIND       PRES   REMARKS
CAPE GIRARDEAU LGT RAIN  41  38  89 NW16G24   29.69R FOG
6HR MIN TEMP:  41; 6HR MAX TEMP:  46; 6HR PCP:  0.04;

FARMINGTON     CLOUDY    36  32  87 W6        29.72R
6HR MIN TEMP:  36; 6HR MAX TEMP:  43; 6HR PCP:  0.03;

POPLAR BLUFF   LGT RAIN  40  36  86 NW13      29.70S
6HR MIN TEMP:  41; 6HR MAX TEMP:  46; 6HR PCP:  0.04;

WEST PLAINS    CLOUDY    35  30  82 NW5       29.73R
6HR MIN TEMP:  35; 6HR MAX TEMP:  40;


$$



USA.gov is the U.S. government's official web portal to all federal, state and local government web resources and services.